Location: Newark
(48.1500°N, 2.9667°W)
Time: 05:28:50
(UTC+00:00)

S-56A Canister/Altair - Visible Passes

Search period start: 29 January 2020 00:00
Search period end: 08 February 2020 00:00
Orbit: 634 x 2498 km, 38.9° (Epoch: 28 January)

Date Brightness Start Highest point End Pass type
(mag) Time Alt. Az. Time Alt. Az. Time Alt. Az.
29 Jan 9.6 18:30:12 10° SSW 18:36:37 24° SSE 18:40:21 15° ESE visible
29 Jan 9.5 20:33:54 10° WSW 20:37:47 26° SW 20:37:47 26° SW visible
30 Jan 9.9 17:57:07 10° SSW 18:03:54 23° SSE 18:09:02 10° ESE visible
30 Jan 9.0 20:00:43 10° WSW 20:06:58 34° S 20:06:58 34° S visible
31 Jan 8.9 19:27:29 10° SW 19:34:46 35° S 19:36:08 32° SSE visible
31 Jan 10.4 21:32:25 10° WSW 21:33:35 14° WSW 21:33:35 14° WSW visible
01 Feb 9.2 18:54:11 10° SW 19:02:04 36° S 19:05:18 23° SE visible
01 Feb 9.7 20:59:13 10° WSW 21:02:45 24° SW 21:02:45 24° SW visible
02 Feb 9.5 18:20:51 10° SW 18:29:21 36° S 18:34:28 14° ESE visible
02 Feb 9.1 20:25:58 10° WSW 20:31:54 34° SSW 20:31:54 34° SSW visible
03 Feb 9.7 17:47:27 10° SW 17:56:33 36° SSE 18:02:52 10° ESE visible
03 Feb 8.8 19:52:37 10° WSW 20:00:11 39° S 20:01:03 37° S visible
03 Feb 10.7 21:58:26 10° WSW 21:58:29 10° WSW 21:58:29 10° WSW visible
04 Feb 9.0 19:19:12 10° WSW 19:27:31 41° S 19:30:12 29° SE visible
04 Feb 10.1 21:25:04 10° WSW 21:27:39 18° WSW 21:27:39 18° WSW visible
05 Feb 9.3 18:45:44 10° WSW 18:54:47 43° S 18:59:23 19° ESE visible
05 Feb 9.6 20:51:40 10° W 20:56:49 27° SW 20:56:49 27° SW visible
06 Feb 9.5 18:12:12 10° WSW 18:21:59 45° S 18:28:34 10° ESE visible
06 Feb 9.2 20:18:12 10° W 20:25:25 32° SSW 20:25:59 32° SSW visible
07 Feb 9.7 17:38:37 10° WSW 17:49:07 46° S 17:56:14 10° ESE visible
07 Feb 9.2 19:44:42 10° W 19:52:47 36° SSW 19:55:12 28° SSE visible
07 Feb 10.6 21:52:09 10° WSW 21:52:38 11° WSW 21:52:38 11° WSW visible
